Regional Weather Roundup
Issued by NWS

Home | Current Version | Previous Version | Text Only | Print | Product List | Glossary Off
Versions: 1 2 3 4 5 6 7 8 9 10 11 12 13 14 15 16 17 18 19 20 21 22 23 24 25 26 27 28 29 30 31 32 33 34 35 36 37 38 39 40 41 42 43 44 45 46 47 48 49 50

173
ASUS43 KDTX 190310
RWRMI
MICHIGAN HOURLY REGIONAL WEATHER ROUNDUP
NATIONAL WEATHER SERVICE DETROIT/PONTIAC MI
1000 PM EST SUN FEB 18 2018

NOTE: "FAIR" INDICATES FEW OR NO CLOUDS BELOW 12,000 FEET WITH NO
SIGNIFICANT WEATHER AND/OR OBSTRUCTION TO VISIBILITY.

MIZ047>049-052>055-059>063-066>070-074>076-081>083-190400-
SOUTHEAST LOWER MICHIGAN

CITY           SKY/WX    TMP DP  RH WIND       PRES   REMARKS
ADRIAN         FAIR      33  28  81 S9        30.14F WCI  25
ALMA           FAIR      32  29  87 S10       30.06F WCI  24
ANN ARBOR      FAIR      31  27  85 E7        30.14F WCI  24
BAD AXE        FAIR      31  26  83 S16G22    30.11F WCI  19
CARO           FAIR      33  28  80 S15       30.10F WCI  23
DETROIT CITY   FAIR      31  26  82 SE9       30.18F WCI  23
DETROIT        MOCLDY    31  27  85 SE5       30.17F WCI  26
FLINT          FAIR      32  27  81 S15       30.09F WCI  22
GROSSE ILE     FAIR      33  28  81 SE10      30.16F WCI  25
HILLSDALE      FAIR      32  30  93 SE10      30.08F WCI  24
HOWELL         FAIR      32  29  88 SE14      30.09F WCI  22

CITY           SKY/WX    TMP DP  RH WIND       PRES   REMARKS
JACKSON        FAIR      34  29  82 SE14      30.09F WCI  25
LAMBERTVILLE   FAIR      36  28  73 SE7       30.16S WCI  31
LANSING        FAIR      33  28  81 S13G21    30.07F WCI  24
LAPEER         FAIR      31  27  82 SE7       30.13F WCI  25
MASON          FAIR      34  27  75 S14G20    30.08F WCI  25
MONROE         FAIR      33  28  85 SE6       30.15F WCI  27
MT. CLEMENS    CLOUDY    29  29 100 SE10      30.16F WCI  19
PONTIAC        CLOUDY    31  27  85 SE10      30.11F WCI  22
PORT HOPE        N/A     32  26  78 S12G21    30.10F WCI  23
PORT HURON     FAIR      28  25  86 SE8       30.17F WCI  20
TRI CITIES     FAIR      32  25  75 S15       30.07F WCI  22
MIDLAND        FAIR      32  26  78 S10       30.05F WCI  24
TROY           FAIR      33  28  83 SE6       30.17F WCI  27
SAGINAW HB     FAIR      32  28  86 S17       30.07F WCI  21
$$
MIZ043>046-050>051-056>058-064>065-071>073-077>080-190400-
SOUTHWEST LOWER MICHIGAN

CITY           SKY/WX    TMP DP  RH WIND       PRES   REMARKS
BATTLE CREEK   FAIR      35  29  78 SE17      30.03F WCI  25
BENTON HARBOR  FAIR      37  29  72 SE14G24   29.98F WCI  28
BIG RAPIDS     FAIR      32  23  68 S9G22     29.97F WCI  24
COLDWATER      FAIR      36  31  82 SE13G21   30.06F WCI  27
FREMONT        FAIR      33  20  59 SE10      29.97F WCI  25
HOLLAND        FAIR      36  29  75 SE20G25   29.99F WCI  25
GRAND RAPIDS   CLOUDY    35  27  72 SE18      29.99F WCI  24
IONIA          FAIR      32  28  85 SE17G23   30.02F WCI  21
KALAMAZOO      FAIR      35  28  75 SE10G17   30.03F WCI  27
LUDINGTON      FAIR      35  23  62 S15G25    29.90F WCI  25
MARSHALL       FAIR      35  29  80 SE10G20   30.06F WCI  27
MOUNT PLEASANT FAIR      33  26  76 S13       30.02F WCI  24
MUSKEGON       MOCLDY    35  26  69 SE15G23   29.98S WCI  25
SOUTH HAVEN    FAIR      38  30  73 S13G20    29.98F WCI  30
$$
MIZ016>042-190400-
NORTHERN LOWER MICHIGAN

CITY           SKY/WX    TMP DP  RH WIND       PRES   REMARKS
ALPENA         FAIR      34  26  72 SE18      30.00F WCI  23
BEAVER ISLAND  CLOUDY    36  24  61 S9G23     29.91R WCI  29
BELLAIRE       CLOUDY    37  21  52 S20G25    29.90F WCI  27
CADILLAC       FAIR      32  19  59 S14G24    29.91F WCI  22
CHARLEVOIX     FAIR      38  19  47 S12G18    29.93R WCI  30
FRANKFORT      CLOUDY    39  17  41 S14G21    29.88R WCI  31
GAYLORD        CLOUDY    32  21  64 S20G28    29.89F WCI  20
GRAYLING       CLOUDY    33  20  58 S14G26    29.92F WCI  24
HARBOR SPRINGS FAIR      37  19  47 S6G18     29.92R WCI  32
HOUGHTON LAKE  FAIR      31  21  66 S16       29.97F WCI  20
MANISTEE       FAIR      36  18  48 SE13G22   29.89S WCI  27
OSCODA         FAIR      32  25  74 S13G20    30.06F WCI  22
PELLSTON       FAIR      36  20  52 S10       29.91F WCI  28
ROGERS CITY    FAIR      33  24  69 S18G26    29.96F WCI  22
TRAVERSE CITY  CLOUDY    39  18  42 S10G20    29.87F WCI  32
$$
MIZ007>008-015-190400-
EASTERN UPPER MICHIGAN

CITY           SKY/WX    TMP DP  RH WIND       PRES   REMARKS
KINROSS        MOCLDY    32  25  75 SE15      29.94F WCI  22
MACKINAC ISLAN FAIR      34  21  60 SE6       29.92F WCI  28
NEWBERRY       CLOUDY    32  24  72 S12       29.89S WCI  23
S. S. MARIE    MOCLDY    33  25  72 SE10      29.94F WCI  25
MUNISING         N/A     35  26  69 S15G25    29.84S WCI  25
$$
MIZ004>006-011>014-085-190400-
CENTRAL UPPER MICHIGAN

CITY           SKY/WX    TMP DP  RH WIND       PRES   REMARKS
MANISTIQUE     CLOUDY    33  28  82 S8        29.89S WCI  27
ESCANABA       CLOUDY    32  28  85 S14       29.87S WCI  22
MENOMINEE      CLOUDY    33  26  75 S12       29.88S WCI  24
SAWYER-GWINN   CLOUDY    30  25  80 S18G26    29.81R WCI  18
$$
MIZ001>003-009>011-084-190400-
WESTERN UPPER MICHIGAN

CITY           SKY/WX    TMP DP  RH WIND       PRES   REMARKS
IRON MOUNTAIN  CLOUDY    30  24  78 S8        29.80R WCI  22
HOUGHTON       LGT SNOW  26  22  84 E5        29.76R FOG     WCI  20
COPPER HARBOR    N/A     27  24  89 CALM      29.79R
IRONWOOD       LGT SNOW  28  25  88 NW3       29.74R FOG
$$

ABBREVIATIONS USED IN REMARKS
   TC - TEMPERATURE IN CELSIUS
  WCI - WIND CHILL INDEX
   HX - HEAT INDEX
  VSB - VISIBILITY





USA.gov is the U.S. government's official web portal to all federal, state and local government web resources and services.